Regional Weather Roundup
Issued by NWS Sioux Falls, SD

Home | Current Version | Previous Version | Graphics & Text | Print | Product List | Glossary On
Versions: 1 2 3 4 5 6 7 8 9 10 11 12 13 14 15 16 17 18 19 20 21 22 23 24 25 26 27 28 29 30 31 32 33 34 35 36 37 38 39 40 41 42 43 44 45 46 47 48 49 50
000
ASUS43 KFSD 230310
RWRFSD

WEATHER ROUNDUP FOR SE SOUTH DAKOTA/SW MINNESOTA/NW IOWA
NATIONAL WEATHER SERVICE SIOUX FALLS SD
1000 PM CDT FRI MAY 22 2015

NOTE: "FAIR" INDICATES FEW OR NO CLOUDS BELOW 12,000 FEET WITH NO
SIGNIFICANT WEATHER AND OR OBSTRUCTIONS TO VISIBILITY.


SDZ038>040-050-052>070-230400-
SOUTHEAST SOUTH DAKOTA

CITY           SKY/WX    TMP DP  RH WIND       PRES   REMARKS
BROOKINGS      CLOUDY    57  43  58 SW13      30.21R
CHAMBERLAIN    MOCLDY    47  40  75 S7        30.17R
HURON          PTCLDY    55  42  61 S7        30.18R
MADISON        FAIR      55  41  58 SW9       30.20R
MITCHELL       MOCLDY    56  44  64 CALM      30.18S
SIOUX FALLS    CLOUDY    59  42  53 CALM      30.19S
WINNER         CLOUDY    53  40  61 S13       30.16S
YANKTON        CLOUDY    61  39  44 S10       30.17R
$$

MNZ071-072-080-081-089-090-097-098-230400-
SOUTHWEST MINNESOTA

CITY           SKY/WX    TMP DP  RH WIND       PRES   REMARKS
FAIRMONT       CLOUDY    63  34  34 S6        30.18R
JACKSON        CLOUDY    63  41  45 W12       30.21R
LUVERNE        CLOUDY    59  43  55 W6        30.21S
MARSHALL       CLOUDY    64  39  39 W15       30.17R
MONTEVIDEO     MOCLDY    61  39  44 SE6       30.16R
PIPESTONE      CLOUDY    55  43  62 W6        30.21R
REDWOOD FALLS  CLOUDY    66  36  32 SE7       30.16R
TRACY          CLOUDY    65  42  43 W15G22    30.19R
WINDOM         CLOUDY    63  41  45 SW10G18   30.20R
WORTHINGTON    CLOUDY    59  39  47 SW14      30.21R
$$

IAZ001>003-012>014-020>022-031-032-NEZ013-014-SDZ071-230400-
NORTHWEST IOWA

CITY           SKY/WX    TMP DP  RH WIND       PRES   REMARKS
CHEROKEE       CLOUDY    58  47  69 CALM      30.19F
DENISON        CLOUDY    57  52  82 SE5       30.18S
ESTHERVILLE    CLOUDY    62  41  46 W17       30.20R
LE MARS        CLOUDY    64  39  39 SE9G21    30.19S
ORANGE CITY    CLOUDY    57  45  62 CALM      30.20R
SHELDON        CLOUDY    59  43  55 SW6       30.20R
SIOUX CITY     CLOUDY    59  47  64 SE8       30.19R
SPENCER        CLOUDY    61  45  55 W7        30.21R
STORM LAKE     CLOUDY    59  46  63 W3        30.20F
$$

ABBREVIATIONS USED IN REMARKS
   TC - TEMPERATURE IN CELSIUS
  WCI - WIND CHILL INDEX
   HX - HEAT INDEX
  VSB - VISIBILITY




USA.gov is the U.S. government's official web portal to all federal, state and local government web resources and services.